TimeEST,TemperatureF,Dew PointF,Humidity,Sea Level PressureIn,VisibilityMPH,Wind Direction,Wind SpeedMPH,Gust SpeedMPH,PrecipitationIn,Events,Conditions,WindDirDegrees,DateUTC
12:53 AM,43.0,25.0,49,29.98,10.0,SSW,11.5,-,N/A,,Scattered Clouds,200,2013-11-15 05:53:00
1:53 AM,43.0,25.0,49,29.97,10.0,SSW,12.7,-,N/A,,Mostly Cloudy,210,2013-11-15 06:53:00
2:53 AM,42.1,26.1,53,29.98,10.0,SSW,12.7,-,N/A,,Clear,210,2013-11-15 07:53:00
3:53 AM,41.0,26.1,55,29.97,10.0,SSW,10.4,-,N/A,,Clear,210,2013-11-15 08:53:00
4:53 AM,41.0,26.1,55,29.97,10.0,SSW,9.2,-,N/A,,Clear,200,2013-11-15 09:53:00
5:53 AM,39.9,26.1,58,29.97,10.0,SSW,9.2,-,N/A,,Overcast,200,2013-11-15 10:53:00
6:53 AM,39.0,26.1,60,29.99,10.0,SSW,9.2,-,N/A,,Mostly Cloudy,210,2013-11-15 11:53:00
7:53 AM,39.0,26.1,60,29.99,10.0,SSW,8.1,-,N/A,,Mostly Cloudy,210,2013-11-15 12:53:00
8:53 AM,41.0,27.0,57,30.01,10.0,SSW,9.2,-,N/A,,Overcast,210,2013-11-15 13:53:00
9:53 AM,44.1,28.9,55,30.01,10.0,SSW,11.5,-,N/A,,Overcast,210,2013-11-15 14:53:00
10:53 AM,46.0,30.0,54,30.01,10.0,SSW,10.4,-,N/A,,Mostly Cloudy,200,2013-11-15 15:53:00
11:53 AM,46.9,30.0,52,30.01,10.0,SW,11.5,-,N/A,,Mostly Cloudy,220,2013-11-15 16:53:00
12:53 PM,46.9,28.9,50,29.99,10.0,SSW,8.1,-,N/A,,Overcast,210,2013-11-15 17:53:00
1:53 PM,48.9,30.0,48,29.98,10.0,SW,8.1,-,N/A,,Mostly Cloudy,230,2013-11-15 18:53:00
2:53 PM,50.0,30.0,46,29.98,10.0,WSW,8.1,-,N/A,,Mostly Cloudy,240,2013-11-15 19:53:00
3:53 PM,50.0,32.0,50,29.98,10.0,West,5.8,-,N/A,,Mostly Cloudy,260,2013-11-15 20:53:00
4:53 PM,46.9,30.9,54,29.99,10.0,WSW,5.8,-,N/A,,Scattered Clouds,250,2013-11-15 21:53:00
5:53 PM,46.0,28.0,50,29.99,10.0,SW,11.5,-,N/A,,Scattered Clouds,220,2013-11-15 22:53:00
6:53 PM,43.0,28.0,56,30.01,10.0,SSW,8.1,-,N/A,,Partly Cloudy,200,2013-11-15 23:53:00
7:53 PM,41.0,28.0,60,30.01,10.0,South,5.8,-,N/A,,Partly Cloudy,190,2013-11-16 00:53:00
8:53 PM,39.9,28.0,63,30.02,10.0,SSW,5.8,-,N/A,,Clear,200,2013-11-16 01:53:00
9:53 PM,37.9,28.9,70,30.01,10.0,South,5.8,-,N/A,,Clear,180,2013-11-16 02:53:00
10:53 PM,36.0,28.9,76,30.02,10.0,South,9.2,-,N/A,,Partly Cloudy,180,2013-11-16 03:53:00
11:53 PM,37.9,28.9,70,30.02,10.0,South,9.2,-,N/A,,Mostly Cloudy,180,2013-11-16 04:53:00